1st Responders/1st Detectors/Storm Spotters Weather Summary for Hopkins County, KY

Forecast Maps


Reg. NEXRAD Animation


National Fire Danger: Day 1 & 2 Map

Current NWS Watch/Warnings

SPC Convective Day 1 Outlook


Day 2 Outlook

(Click images to enlarge|Page will refresh every 5 minutes)
UK Ag. Weather Center Desktop Severe Weather Service[HERE]
Hopkins County, KY Hazardous Weather Outlook Webcast
(9 AM to 9 PM Mon-Fri)
[Fast]
[Dial-up]


UKAWC 1st Detectors/1st Responders Precision Weather Forecast For HOPKINS County, Kentucky
(based on the NWS County Digital Forecast)

ISSUED AT 02:00 UTC ON SUNDAY MAR 07 2021
DAY SATURDAY SUNDAY
CDT 3HR 10P 11P MIDN 1A 2A 3A 4A 5A 6A 7A 8A 9A 10A 11A NOON 1P 2P 3P 4P 5P 6P
MAX/MIN -- -- -- -- -- -- -- -- -- 31° -- -- -- -- -- -- -- -- -- -- 61°
TEMP 43° 40° 38° 36° 36° 34° 34° 32° 31° 32° 36° 41° 47° 52° 56° 59° 61° 61° 61° 59° 58°
SKY COVER 1% 1% 1% 1% 1% 1% 1% 0% 0% 0% 0% 0% 0% 1% 3% 4% 6% 7% 8% 9% 9%
Clouds
DEW PT 23° 25° 27° 27° 27° 27° 27° 27° 27° 27° 29° 31° 31° 31° 31° 29° 29° 29° 29° 29° 31°
RH 46% 54% 64% 72% 69% 71% 75% 78% 81% 81% 72% 65% 55% 44% 37% 31% 28% 28% 28% 31% 36%
POP 12HR -- -- -- -- -- -- -- -- -- 0% -- -- -- -- -- -- -- -- -- -- --
RAIN/SNOW (liq.equ) -- -- -- 0.00in -- -- -- -- -- 0.00in -- -- -- -- -- 0.00in -- -- -- -- --
SNOWFALL -- -- -- 0in -- -- -- -- -- 0in -- -- -- -- -- 0in -- -- -- -- --
WIND SPEED(MPH) 0 0 0 0 0 0 0 0 0 0 1 5 5 5 6 5 5 5 6 5 2
WIND Gust(MPH) 0 0 0 0 0 0 0 0 0 0 5 7 7 7 9 7 7 7 9 7 7
WIND DIR N N N N N S S SW SW SW SW SW SW W W W W W NW W W
DEW -- -- -- Frost Frost Frost Frost Frost Frost Frost Frost -- -- -- -- -- -- -- -- -- --
HeatIndex 43 40 38 36 36 34 34 32 31 32 36 39 47 52 56 59 61 61 61 59 58
Rain Showers -- -- -- -- -- -- -- -- -- -- -- -- -- -- -- -- -- -- -- -- --
Thunder Storm -- -- -- -- -- -- -- -- -- -- -- -- -- -- -- -- -- -- -- -- --
WIND CHILL -- -- -- -- -- -- -- -- -- -- -- 38° -- -- -- -- -- -- -- -- --
SPRAY COND
DRY COND
LIVESTOCK COLDSTRESS



DAY MONDAY TUESDAY WEDNESDAY THURSDAY FRIDAY SATURDAY
CDT 6HR 7P 8P 9P 10P 11P MIDN 1A 2A 3A 4A 5A 6A 7A 8A 9A 10A 1P 4P 7P 10P 1A 4A 7A 10A 1P 4P 7P 1A 7A 1P 7P 1A 7A 1P 7P 1A 7A 1P 7P 1A 7A 1P 7P
MAX/MIN -- -- -- -- -- -- -- -- -- -- -- -- 36° -- -- -- -- 65° -- -- -- -- 40° -- -- 65° -- -- 49° 67° -- -- 56° 67° -- -- 52° 63° -- -- 45° 61° --
TEMP 54° 50° 47° 45° 43° 41° 40° 40° 38° 38° 36° 36° 36° 40° 45° 50° 61° 65° 56° 47° 43° 41° 41° 52° 63° 65° 58° 49° 49° 63° 63° 59° 58° 63° 63° 58° 54° 61° 58° 49° 45° 58° 56°
SKY COVER 9% 9% 8% 8% 6% 4% 2% 1% 1% 1% 1% 1% 2% 2% 3% 3% 6% 8% 12% 32% 38% 53% 57% 65% 64% 46% 50% 40% 66% 83% 78% 78% 84% 86% 87% 78% 71% 64% 76% 78% 72% 74% 80%
Clouds
DEW PT 32° 32° 34° 34° 34° 34° 34° 34° 34° 34° 32° 34° 34° 36° 36° 38° 36° 36° 36° 38° 36° 36° 34° 38° 41° 40° 40° 40° 43° 50° 50° 50° 52° 54° 54° 52° 49° 49° 47° 45° 43° 47° 45°
RH 42% 50% 58% 65% 70% 72% 76% 78% 81% 85% 85% 91% 92% 85% 73% 60% 38% 34% 46% 67% 79% 78% 75% 60% 46% 39% 50% 70% 79% 62% 64% 72% 83% 72% 72% 83% 85% 64% 66% 82% 89% 66% 66%
POP 12HR 0% -- -- -- -- -- -- -- -- -- -- -- 0% -- -- -- -- -- 0% -- -- -- 0% -- -- -- 0% -- 4% -- 6% -- 22% -- 26% -- 35% -- 30% -- 30% -- 30%
RAIN/SNOW (liq.equ) 0.00in -- -- -- -- -- 0.00in -- -- -- -- -- 0.00in -- -- -- 0.00in -- 0.00in -- 0.00in -- 0.00in -- 0.00in -- 0.00in -- -- -- -- -- -- -- -- -- -- -- -- -- -- -- --
SNOWFALL 0in -- -- -- -- -- 0in -- -- -- -- -- 0in -- -- -- 0in -- 0in -- 0in -- 0in -- 0in -- 0in -- -- -- -- -- -- -- -- -- -- -- -- -- -- -- --
WIND SPEED(MPH) 1 0 0 0 0 0 1 1 1 1 1 1 1 2 5 6 7 6 1 1 1 1 2 7 9 9 6 7 7 14 10 13 9 13 7 6 6 6 2 2 1 5 5
WIND DIR S S S S S S S S S S S S S S SW SW SW SW S S S S S S S S S S S S S S S SW S SW SW W N N NE E SE
HeatIndex 54 50 47 45 43 41 40 40 38 38 36 36 36 37 42 50 61 65 56 47 43 41 40 52 63 65 58 49 49 63 63 59 58 63 63 58 54 61 58 49 45 58 56
Rain Showers -- -- -- -- -- -- -- -- -- -- -- -- -- -- -- -- -- -- -- -- -- -- -- -- -- -- -- -- -- -- -- Slight Chance Chance Chance Chance Chance Chance Chance Chance Chance Chance Chance Chance
Thunder Storm -- -- -- -- -- -- -- -- -- -- -- -- -- -- -- -- -- -- -- -- -- -- -- -- -- -- -- -- -- -- -- -- -- -- Slight Chance Slight Chance Slight Chance Slight Chance -- -- -- -- --
WIND CHILL -- -- -- -- -- -- -- -- -- -- -- -- -- -- 43° -- -- -- -- -- -- -- -- -- -- -- -- -- -- -- -- -- -- -- -- -- -- -- -- -- -- -- --
SPRAY COND
DRY COND
LIVESTOCK COLDSTRESS

Click on individual weather variable above in left-hand column (ie., TEMP, RH, QPF 12HR) to view state forecast maps






NWS 48 Hr. Forecast Maps,

Regional Hourly Observations For HOPKINS County, Kentucky
Issued at 900 PM EST SAT MAR 06 2021
WESTERN AND SOUTH CENTRAL KENTUCKY
  
CITY           SKY/WX    TMP DP  RH WIND       PRES   REMARKS
PADUCAH        CLEAR     40  26  57 CALM      30.31R                  
HENDERSON      CLEAR     36  26  67 S3        30.32S                  
OWENSBORO      CLEAR     44  26  49 N3        30.32R                  
HOPKINSVILLE   CLEAR     43  25  48 N3        30.30R                  
BOWLING GREEN  CLEAR     45  21  38 CALM      30.30S                  
GLASGOW        CLEAR     37  22  55 CALM      30.29S                  


Current NOWCAST not available:
Nowcasts are not issued routinely during fair weather. Only when
precipitation or other significant weather is occuring in this county will these
forecasts be issued. Currently, there is no short term forecast in effect.


Fire Weather Forecast For HOPKINS County, KY
Provided by the National Weather Service:

Issued at: Sat Mar 6 21:05:01 EST 2021

Precip Type           None         None         None         None         
Chance Precip (%)     0            0            0            0            
High Temperature(F)                58-62                     61-65        
Minimum RH(%)                      26-31                     37-42        
Low Temperature(F)    29-33                     33-37                     
Maximum RH(%)         77-82                     85-90                     
Temp (24h Trend)      30 (-1)      61 (+7)      34           64           
RH % (24h Trend)      80 (0)       29 (+7)      88           40           
20FTWND-AM(MPH)                    Lgt/Var                   SW 3-7       
20FTWND-PM(MPH)       Lgt/Var      W 3-7        Lgt/Var      SW 4-8       
Precip Amount         0.00         0.00         0.00         0.00         
Precip Duration                                                           
Precip Begin                                                              
Precip End                                                                
1700'Mix Hgt Temp                  52                        57           
Mixing Hgt(FT-AGL)                 4566                      4599         
Transport Wind (KTS)               W  3                      SW  9        
Transport Wind (M/S)               W  2                      SW  5        
Vent Rate (M/S-M)                  2152                      6503         
Dispersion Index                   Poor to Fair              Fair to Good 
LAL                   1            1            1            1            
Haines Index          3            4            5            5            
Stability(DSI)        SLGT UNSTBL  MOD UNSTBL   SLGT UNSTBL  MOD UNSTBL   

Remarks...None.

.Forecast for days 3 through 7...

.MONDAY NIGHT...Partly cloudy. Lows around 40. South winds around
5 mph. 
.TUESDAY...Partly sunny. Highs in the mid 60s. South winds 5 to
15 mph. 
.TUESDAY NIGHT...Partly cloudy. Lows in the upper 40s. South
winds 5 to 10 mph. 
.WEDNESDAY...Mostly cloudy. Highs in the upper 60s. South winds
10 to 20 mph. 
.WEDNESDAY NIGHT...Mostly cloudy with a 20 percent chance of rain
showers. Lows in the mid 50s. South winds 10 to 15 mph. 
.THURSDAY...Mostly cloudy with a 20 percent chance of rain
showers. Highs in the upper 60s. Southwest winds 10 to 15 mph. 
.THURSDAY NIGHT...Mostly cloudy with chance of rain showers and
slight chance of thunderstorms. Lows in the lower 50s. Southwest
winds 5 to 10 mph. 
.FRIDAY...Partly sunny with chance of rain showers and slight
chance of thunderstorms. Highs in the mid 60s. West winds 5 to
10 mph. 
.FRIDAY NIGHT...Mostly cloudy with a 30 percent chance of rain
showers. Lows in the mid 40s. North winds around 5 mph. 
.SATURDAY...Mostly cloudy with a 30 percent chance of rain
showers. Highs in the lower 60s. Northeast winds 5 to 10 mph
shifting to the southeast in the afternoon. 

SPC's Fire Weather Web Tool (Excellent!), SPC's Fire Weather Outlooks, NWS Fire Weather WEB, Fire Danger Class Map,
Keetch-Byram Drought Index, ROMAN Web, Haines Index ,
WFAS's 10-hr Dead Fuel Moist., WFAS's 100-hr Dead Fuel Moist., Probablity of Ignition, Visual blackness Map, Palmer Drought Index, HPC's Rainfall Forecast Maps


Hazardous Weather Outlook For HOPKINS County, Kentucky
436 PM CST Sat Mar 6 2021

 DAY ONE  Tonight

Minor to moderate flooding will continue on several area rivers. 
Please refer to the River Flood Warnings and Statements for details.

 DAYS TWO THROUGH SEVEN  Sunday through Friday

Minor to moderate flooding will continue on several area rivers. 
Please refer to the River Flood Warnings and Statements for details.

South winds may gust into the 25 to 35 mph range Wednesday and 
Thursday.

 SPOTTER INFORMATION STATEMENT  

Spotter activation will not be needed.

Latest HOPKINS County, Kentucky Watches, Warnings and Advisories.
Additional Drought Info.: UKAWC Drought Page, Kentucky Drought Watch


7-Day Forecast For HOPKINS County, KY

TONIGHT
Clear. Lows in the lower 30s. Calm winds.

SUNDAY
Sunny. Highs in the lower 60s. West winds around 5 mph.

SUNDAY NIGHT
Clear. Lows in the mid 30s. Calm winds.

MONDAY
Sunny. Highs in the mid 60s. Southwest winds 5 to 10 mph.

MONDAY NIGHT
Partly cloudy. Lows around 40. South winds 5 mph.

TUESDAY
Partly sunny. Highs in the mid 60s.

TUESDAY NIGHT
Partly cloudy. Lows in the upper 40s.

WEDNESDAY
Mostly cloudy. Highs in the upper 60s.

WEDNESDAY NIGHT
Mostly cloudy. A 20 percent chance of showers after midnight. Lows in the mid 50s.

THURSDAY
Mostly cloudy with a 30 percent chance of showers. Highs in the upper 60s.

THURSDAY NIGHT
Mostly cloudy with a chance of showers and a slight chance of thunderstorms. Lows in the lower 50s. Chance of precipitation 40 percent.

FRIDAY
Partly sunny with a chance of showers and a slight chance of thunderstorms. Highs in the lower 60s. Chance of precipitation 30 percent.

FRIDAY NIGHT
Mostly cloudy with a 30 percent chance of showers. Lows in the mid 40s.

SATURDAY
Mostly cloudy with a 30 percent chance of showers. Highs in the lower 60s.

Ag Weather Center, Department of Biosystems & Agricultural Engineering, University of Kentucky